Location: Arthez
(43.0833°N, 0.2500°W)
Time: 22:25:57
(UTC+00:00)

deb Kosmos-970 - Pass Details

Date: 17 August 2022
Orbit: 900 x 1112 km, 65.8° (Epoch: 28 September)

Event Time Altitude Azimuth Distance (km) Brightness Sun altitude
Rises 01:17:47 0° 323° (NW) 3,936 ? -31.1°
Reaches altitude 10° 01:20:34 10° 318° (NW) 2,962 ? -30.9°
Enters shadow 01:25:30 41° 287° (WNW) 1,529 ? -30.5°
